This demonstration page uses our WeatherBlox Daily Observations layout. Learn more.

Left ArrowRight Arrow

39.92423, -83.80882

Hourly Observations for July 17, 2020

Temp ( °F °C ) Dew Point ( °F °C ) Humidity (%) Winds ( mph kmh ) Pressure ( in mb ) Visibility ( mi km ) Precip ( " mm )
12:56 am 00:56 Clear 69 20.6 69 20.6 100 100 WSW 3 6 30.10 1019 8 13 N/A
1:56 am 01:56 Mostly Clear with Mist and Fog 68 20 68 20 100 100 WSW 5 7 30.11 1020 6 10 N/A
2:23 am 02:23 Mostly Cloudy with Mist and Fog 68 20 68 20 100 100 SW 3 6 30.11 1020 5 8 N/A
2:56 am 02:56 Mostly Cloudy with Mist and Fog 69 20.6 69 20.6 100 100 W 6 9 30.12 1020 6 10 N/A
3:31 am 03:31 Mostly Clear 70 21 70 21 100 100 WNW 7 11 30.11 1020 7 11 N/A
3:56 am 03:56 Mostly Clear with Mist and Fog 69 20.6 69 20.6 100 100 W 6 9 30.12 1020 6 10 N/A
4:11 am 04:11 Mostly Cloudy with Mist and Fog 70 21 70 21 100 100 W 5 7 30.11 1020 6 10 N/A
4:56 am 04:56 Mostly Cloudy with Mist and Fog 70 21.1 70 21.1 100 100 WNW 6 9 30.12 1020 6 10 N/A
5:09 am 05:09 Partly Cloudy with Mist and Fog 70 21 70 21 100 100 W 5 7 30.12 1020 5 8 N/A
5:56 am 05:56 Clear with Mist and Fog 68 20 68 20 100 100 NW 3 6 30.15 1021 3 5 N/A
6:03 am 06:03 Mostly Clear with Mist and Fog 66 19 66 19 100 100 N N/A 30.15 1021 3 5 N/A
6:16 am 06:16 Mostly Clear with Mist and Fog 66 19 66 19 100 100 WNW 5 7 30.15 1021 3 4 N/A
6:56 am 06:56 Mostly Cloudy with Mist and Fog 68 20 68 20 100 100 NNW 5 7 30.16 1022 2 3 N/A
7:04 am 07:04 Mostly Cloudy with Mist and Fog 68 20 68 20 100 100 NNW 5 7 30.16 1021 2 3 N/A
7:16 am 07:16 Cloudy with Mist and Fog 68 20 68 20 100 100 NNW 6 9 30.17 1022 1 1 N/A
7:25 am 07:25 Cloudy with Fog 68 20 68 20 100 100 NW 5 7 30.17 1022 1 1 N/A
7:37 am 07:37 Cloudy with Mist and Fog 70 21 70 21 100 100 NW 3 6 30.18 1022 1 2 N/A
7:47 am 07:47 Cloudy with Mist and Fog 70 21 70 21 100 100 NW 3 6 30.18 1022 2 2 N/A
7:56 am 07:56 Mostly Cloudy with Mist and Fog 70 21.1 70 21.1 100 100 WNW 3 6 30.19 1023 3 4 N/A
8:01 am 08:01 Partly Cloudy with Mist and Fog 70 21 70 21 100 100 NW 3 6 30.18 1022 3 5 N/A
8:56 am 08:56 Partly Cloudy with Mist and Fog 71 21.7 71 21.7 100 100 NNW 6 9 30.20 1023 5 8 N/A
9:56 am 09:56 Sunny 74 23.3 70 21.1 88 88 NNW 5 7 30.20 1023 10 16 N/A
10:56 am 10:56 Sunny 76 24.4 68 20 77 77 NNW 5 7 30.20 1023 10 16 N/A
11:56 am 11:56 Sunny 78 25.6 66 18.9 67 67 SSE 3 6 30.20 1023 10 16 N/A
12:56 pm 12:56 Sunny 81 27.2 67 19.4 62 62 VRB 5 7 30.19 1022 10 16 N/A
1:56 pm 13:56 Partly Cloudy 83 28.3 67 19.4 59 59 S 5 7 30.18 1022 10 16 N/A
2:56 pm 14:56 Mostly Sunny 84 28.9 64 17.8 51 51 VRB 3 6 30.17 1022 10 16 N/A
3:56 pm 15:56 Sunny 85 29.4 64 17.8 50 50 VRB 6 9 30.14 1021 10 16 N/A
4:56 pm 16:56 Sunny 87 30.6 60 15.6 40 40 VRB 6 9 30.12 1020 10 16 N/A
5:56 pm 17:56 Sunny 86 30 58 14.4 39 39 VRB 5 7 30.11 1020 10 16 N/A
6:56 pm 18:56 Sunny 86 30 62 16.7 45 45 WSW 3 6 30.10 1019 10 16 N/A
7:56 pm 19:56 Sunny 84 28.9 65 18.3 53 53 N N/A 30.10 1019 10 16 N/A
8:56 pm 20:56 Sunny 78 25.6 69 20.6 74 74 E 3 6 30.11 1020 10 16 N/A
9:56 pm 21:56 Clear 75 23.9 67 19.4 76 76 N N/A 30.12 1020 10 16 N/A
10:56 pm 22:56 Clear 71 21.7 68 20 90 90 N N/A 30.13 1020 10 16 N/A
11:56 pm 23:56 Clear 70 21.1 67 19.4 90 90 N N/A 30.13 1020 10 16 N/A

Powered by AerisWeather